KB6LA Weather Reports


time (UTC)temp
F
wind
direction
speed
knots
gust
knots
rain 1hr
in
rain 24hr
in
rain mn
in
humidity
%
barometer
mb
20260506062339 56 308 0.0 1.7 0.00 0.00 0.00 80 1016.2
20260506061832 56 337 1.7 1.7 0.00 0.00 0.00 80 1016.2
20260506061325 56 313 0.9 1.7 0.00 0.00 0.00 80 1016.2
20260506060310 56 312 0.9 1.7 0.00 0.00 0.00 80 1016.2
20260506050142 57 313 0.0 1.7 0.00 0.00 0.00 79 1015.5
20260506045128 57 321 0.0 1.7 0.00 0.00 0.00 79 1015.1
20260506044620 57 317 0.9 1.7 0.00 0.00 0.00 79 1015.1
20260506043606 58 322 0.0 1.7 0.00 0.00 0.00 78 1015.1
20260506043059 58 318 0.9 1.7 0.00 0.00 0.00 77 1015.1
20260506042552 58 306 0.9 0.9 0.00 0.00 0.00 77 1014.8
20260506042045 58 278 0.0 0.9 0.00 0.00 0.00 76 1014.8
20260506041537 58 278 0.0 0.9 0.00 0.00 0.00 76 1014.8
20260506041029 58 278 0.0 0.9 0.00 0.00 0.00 76 1014.8
20260506040522 59 277 0.0 0.9 0.00 0.00 0.00 75 1014.8
20260506040015 59 277 0.9 0.9 0.00 0.00 0.00 75 1014.8
20260506035508 59 269 0.9 0.9 0.00 0.00 0.00 75 1014.8
20260506035001 59 270 0.9 0.9 0.00 0.00 0.00 75 1014.5
20260506033946 59 263 0.0 1.7 0.00 0.00 0.00 74 1014.5
20260506033439 59 262 0.0 1.7 0.00 0.00 0.00 74 1014.5
20260506032931 59 265 0.9 2.6 0.00 0.00 0.00 74 1014.5
20260506032424 59 258 0.9 2.6 0.00 0.00 0.00 73 1014.5
20260506031917 59 265 0.9 3.5 0.00 0.00 0.00 73 1014.1
20260506031410 59 241 1.7 3.5 0.00 0.00 0.00 73 1014.1
20260506030903 59 262 1.7 5.2 0.00 0.00 0.00 74 1014.1
20260506030355 59 222 3.5 5.2 0.00 0.00 0.00 73 1014.1
20260506025340 60 247 3.5 5.2 0.00 0.00 0.00 73 1013.8
20260506024833 60 248 1.7 5.2 0.00 0.00 0.00 73 1013.8
20260506024327 60 218 0.9 3.5 0.00 0.00 0.00 73 1013.8
20260506023820 60 273 1.7 3.5 0.00 0.00 0.00 73 1013.8
20260506023311 60 217 2.6 6.1 0.00 0.00 0.00 73 1013.8
20260506022804 60 241 3.5 8.7 0.00 0.00 0.00 72 1013.4
20260506021749 60 224 3.5 7.8 0.00 0.00 0.00 73 1013.4
20260506020735 60 215 5.2 7.0 0.00 0.00 0.00 73 1013.4
20260506020227 60 229 3.5 8.7 0.00 0.00 0.00 72 1013.4
20260506015720 60 234 4.3 8.7 0.00 0.00 0.00 72 1013.4
20260506014705 61 231 3.5 7.8 0.00 0.00 0.00 69 1013.4
20260506013651 61 261 2.6 9.6 0.00 0.00 0.00 68 1013.4
20260506013144 61 220 6.1 9.6 0.00 0.00 0.00 67 1013.1
20260506012637 61 268 7.0 7.8 0.00 0.00 0.00 68 1013.1
20260506012130 61 238 3.5 7.0 0.00 0.00 0.00 68 1013.1
20260506011622 61 252 2.6 7.0 0.00 0.00 0.00 68 1013.1
20260506010608 60 250 4.3 8.7 0.00 0.00 0.00 70 1013.4
20260506010100 60 274 2.6 8.7 0.00 0.00 0.00 70 1013.1
20260506005553 60 258 5.2 9.6 0.00 0.00 0.00 70 1013.1
20260506005045 60 160 6.1 9.6 0.00 0.00 0.00 70 1013.1
20260506004538 60 247 5.2 11.3 0.00 0.00 0.00 69 1013.1
20260506004031 60 283 3.5 12.2 0.00 0.00 0.00 69 1013.1
20260506003524 60 223 7.8 12.2 0.00 0.00 0.00 68 1013.1
20260506003016 60 223 7.8 9.6 0.00 0.00 0.00 67 1013.1
20260506002002 60 217 7.0 11.3 0.00 0.00 0.00 67 1013.1
20260506001455 60 232 4.3 14.8 0.00 0.00 0.00 67 1013.1
20260506000948 61 231 7.0 14.8 0.00 0.00 0.00 66 1013.1
20260506000440 61 248 7.8 11.3 0.00 0.00 0.00 65 1013.1
20260505235933 61 233 7.0 12.2 0.00 0.00 0.00 66 1013.1
20260505235426 61 241 5.2 13.0 0.00 0.00 0.00 65 1013.1
20260505234918 61 201 7.8 13.0 0.00 0.00 0.00 65 1013.1
20260505234410 61 250 7.0 13.0 0.00 0.00 0.00 66 1013.1
20260505233903 62 231 9.6 13.0 0.00 0.00 0.00 64 1013.1
20260505233356 62 37 5.2 14.8 0.00 0.00 0.00 65 1013.1
20260505232849 61 250 6.1 14.8 0.00 0.00 0.00 68 1013.1
20260505232342 61 262 6.1 13.9 0.00 0.00 0.00 71 1012.8
20260505231835 60 248 7.0 14.8 0.00 0.00 0.00 73 1013.1
20260505230819 59 244 7.0 15.6 0.00 0.00 0.00 75 1013.1
20260505230313 59 227 6.1 15.6 0.00 0.00 0.00 76 1013.4
20260505225805 60 211 5.2 16.5 0.00 0.00 0.00 74 1013.4
20260505225258 60 134 8.7 16.5 0.00 0.00 0.00 72 1013.4
20260505224243 60 248 6.1 16.5 0.00 0.00 0.00 72 1013.4
20260505223736 60 262 10.4 16.5 0.00 0.00 0.00 71 1013.4
20260505223229 60 242 9.6 19.1 0.00 0.00 0.00 71 1013.4
20260505222722 60 260 10.4 19.1 0.00 0.00 0.00 69 1013.4
20260505222215 61 248 9.6 15.6 0.00 0.00 0.00 70 1013.4
20260505221200 61 220 11.3 16.5 0.00 0.00 0.00 71 1013.4
20260505220653 61 197 10.4 16.5 0.00 0.00 0.00 71 1013.8
20260505220145 62 239 7.8 16.5 0.00 0.00 0.00 68 1013.8
20260505215131 61 235 13.0 18.2 0.00 0.00 0.00 69 1013.4
20260505214624 61 225 12.2 18.2 0.00 0.00 0.00 67 1013.8
20260505214116 60 168 7.8 14.8 0.00 0.00 0.00 70 1013.8
20260505213608 61 244 10.4 15.6 0.00 0.00 0.00 68 1013.8
20260505213101 61 229 11.3 16.5 0.00 0.00 0.00 66 1013.8
20260505212554 63 223 10.4 16.5 0.00 0.00 0.00 63 1014.1
20260505212046 62 241 3.5 13.9 0.00 0.00 0.00 65 1013.8
20260505211539 61 218 12.2 16.5 0.00 0.00 0.00 64 1013.8
20260505211032 61 297 7.0 16.5 0.00 0.00 0.00 61 1014.1
20260505210525 62 169 7.8 16.5 0.00 0.00 0.00 61 1013.8
20260505210018 61 245 7.0 16.5 0.00 0.00 0.00 61 1013.8
20260505205510 62 236 9.6 14.8 0.00 0.00 0.00 60 1013.8
20260505205004 62 245 9.6 14.8 0.00 0.00 0.00 57 1013.8
20260505204456 61 240 5.2 16.5 0.00 0.00 0.00 59 1013.8
20260505203949 62 224 8.7 16.5 0.00 0.00 0.00 63 1013.8
20260505203442 63 194 10.4 16.5 0.00 0.00 0.00 59 1013.8
20260505202934 62 261 5.2 15.6 0.00 0.00 0.00 64 1013.8
20260505202427 62 216 5.2 14.8 0.00 0.00 0.00 63 1013.8
20260505201920 62 269 9.6 14.8 0.00 0.00 0.00 63 1013.8
20260505201412 62 220 10.4 14.8 0.00 0.00 0.00 62 1013.8
20260505200906 62 197 8.7 14.8 0.00 0.00 0.00 60 1013.8
20260505200357 61 209 9.6 13.9 0.00 0.00 0.00 62 1013.8
20260505195850 61 247 7.8 13.9 0.00 0.00 0.00 65 1014.1
20260505195344 62 238 9.6 13.9 0.00 0.00 0.00 64 1014.1
20260505194835 62 203 7.8 14.8 0.00 0.00 0.00 60 1013.8
20260505194328 62 252 8.7 15.6 0.00 0.00 0.00 61 1014.1
20260505193314 62 227 13.0 15.6 0.00 0.00 0.00 56 1014.1
20260505192807 62 236 7.8 15.6 0.00 0.00 0.00 56 1014.1
20260505192259 62 228 8.7 15.6 0.00 0.00 0.00 61 1014.1
20260505191752 62 238 12.2 13.9 0.00 0.00 0.00 59 1014.1
20260505191245 62 249 10.4 13.9 0.00 0.00 0.00 59 1014.1
20260505190738 62 213 10.4 13.0 0.00 0.00 0.00 59 1013.8
20260505190230 62 245 9.6 14.8 0.00 0.00 0.00 59 1014.1
20260505185723 62 214 9.6 14.8 0.00 0.00 0.00 59 1014.1
20260505185215 62 218 7.0 13.9 0.00 0.00 0.00 59 1014.1
20260505184708 62 266 7.8 12.2 0.00 0.00 0.00 59 1014.1
20260505184201 62 247 7.8 12.2 0.00 0.00 0.00 59 1014.1
20260505183653 63 238 5.2 11.3 0.00 0.00 0.00 62 1014.1
20260505183146 62 162 3.5 12.2 0.00 0.00 0.00 64 1014.1
20260505182639 61 232 1.7 12.2 0.00 0.00 0.00 66 1014.1
20260505182132 61 292 7.0 12.2 0.00 0.00 0.00 66 1014.1
20260505181624 61 215 7.8 12.2 0.00 0.00 0.00 66 1014.1
20260505175555 60 252 6.1 11.3 0.00 0.00 0.00 71 1014.1
20260505175048 60 235 4.3 11.3 0.00 0.00 0.00 71 1013.8
20260505174540 60 197 7.0 12.2 0.00 0.00 0.00 73 1013.8
20260505174034 60 187 7.0 12.2 0.00 0.00 0.00 71 1013.8
20260505173019 60 238 2.6 8.7 0.00 0.00 0.00 72 1013.4
20260505172511 60 279 3.5 8.7 0.00 0.00 0.00 71 1013.8
20260505172005 60 275 3.5 8.7 0.00 0.00 0.00 71 1013.8
20260505171458 61 210 7.0 8.7 0.00 0.00 0.00 70 1013.4
20260505170950 60 214 6.1 9.6 0.00 0.00 0.00 71 1013.8
20260505170443 60 209 6.1 11.3 0.00 0.00 0.00 71 1013.4
20260505165936 61 244 5.2 11.3 0.00 0.00 0.00 70 1013.4
20260505165428 61 289 4.3 8.7 0.00 0.00 0.00 70 1013.4
20260505164920 61 205 4.3 8.7 0.00 0.00 0.00 69 1013.4
20260505164413 61 209 3.5 8.7 0.00 0.00 0.00 68 1013.4
20260505163906 61 252 1.7 8.7 0.00 0.00 0.00 67 1013.1
20260505163359 61 245 4.3 8.7 0.00 0.00 0.00 67 1013.1
20260505162851 61 189 4.3 7.8 0.00 0.00 0.00 68 1013.1
20260505161330 61 160 4.3 7.0 0.00 0.00 0.00 66 1013.1
20260505160823 61 202 3.5 7.0 0.00 0.00 0.00 67 1012.8
20260505160315 60 224 2.6 7.8 0.00 0.00 0.00 67 1012.8
20260505153231 61 291 0.0 3.5 0.00 0.00 0.00 65 1012.8
20260505152723 60 228 2.6 5.2 0.00 0.00 0.00 67 1012.8
20260505152216 60 243 3.5 3.5 0.00 0.00 0.00 66 1012.8
20260505151709 60 214 0.9 3.5 0.00 0.00 0.00 67 1012.8
20260505151202 60 172 1.7 3.5 0.00 0.00 0.00 68 1012.8
20260505150655 60 250 1.7 2.6 0.00 0.00 0.00 68 1012.8
20260505150148 61 105 0.9 2.6 0.00 0.00 0.00 68 1012.8
20260505140528 54 331 0.0 1.7 0.00 0.00 0.00 78 1012.4
20260505124839 54 304 1.7 1.7 0.00 0.00 0.00 80 1012.4
20260505124332 54 316 0.9 1.7 0.00 0.00 0.00 80 1012.4
20260505123318 54 304 0.9 1.7 0.00 0.00 0.00 80 1012.4
20260505122810 55 314 0.9 1.7 0.00 0.00 0.00 80 1012.1
20260505120741 55 320 1.7 1.7 0.00 0.00 0.00 81 1012.1
20260505120234 56 316 0.9 1.7 0.00 0.00 0.00 81 1012.1
20260505115727 56 318 0.9 1.7 0.00 0.00 0.00 82 1012.1
20260505114712 56 290 0.9 1.7 0.00 0.00 0.00 82 1012.1
20260505114205 56 287 0.9 1.7 0.00 0.00 0.00 81 1012.1
20260505113657 56 233 1.7 1.7 0.00 0.00 0.00 80 1012.4
20260505113150 56 226 1.7 1.7 0.00 0.00 0.00 80 1012.4
20260505112643 57 267 0.0 1.7 0.00 0.00 0.00 79 1012.1
20260505111629 57 296 0.9 1.7 0.00 0.00 0.00 79 1012.1
20260505111121 57 294 0.0 1.7 0.00 0.00 0.00 79 1012.1
20260505110106 57 281 0.0 2.6 0.00 0.00 0.00 79 1012.4
20260505102009 58 251 1.7 2.6 0.00 0.00 0.00 77 1012.4
20260505101501 58 284 1.7 2.6 0.00 0.00 0.00 76 1012.4
20260505100954 58 260 1.7 3.5 0.00 0.00 0.00 75 1012.4
20260505100447 58 284 2.6 3.5 0.00 0.00 0.00 74 1012.4
20260505095940 58 253 1.7 3.5 0.00 0.00 0.00 73 1012.4
20260505095433 58 294 1.7 3.5 0.00 0.00 0.00 72 1012.4
20260505094925 58 267 1.7 2.6 0.00 0.00 0.00 71 1012.4
20260505093911 58 260 2.6 2.6 0.00 0.00 0.00 71 1012.4
20260505093404 58 310 0.9 3.5 0.00 0.00 0.00 71 1012.4
20260505092856 58 264 0.9 3.5 0.00 0.00 0.00 71 1012.8
20260505092349 58 301 0.0 3.5 0.00 0.00 0.00 71 1012.8
20260505091842 58 320 0.9 3.5 0.00 0.00 0.00 71 1012.8
20260505091335 58 344 0.0 2.6 0.00 0.00 0.00 71 1012.8
20260505090827 58 282 0.9 3.5 0.00 0.00 0.00 71 1012.8
20260505090320 58 278 0.9 3.5 0.00 0.00 0.00 70 1013.1
20260505085812 58 306 2.6 3.5 0.00 0.00 0.00 70 1012.8
20260505085305 58 327 0.0 2.6 0.00 0.00 0.00 71 1013.1
20260505084758 58 312 0.9 2.6 0.00 0.00 0.00 72 1013.1
20260505084251 59 308 2.6 2.6 0.00 0.00 0.00 72 1013.1
20260505083744 59 303 1.7 2.6 0.00 0.00 0.00 73 1013.1
20260505083236 59 272 2.6 3.5 0.00 0.00 0.00 73 1013.1
20260505082729 59 318 0.9 3.5 0.00 0.00 0.00 74 1013.1
20260505081714 58 330 1.7 2.6 0.00 0.00 0.00 77 1013.1
20260505080153 58 321 0.9 1.7 0.00 0.00 0.00 79 1013.4
20260505075140 58 304 0.0 1.7 0.00 0.00 0.00 82 1013.4
20260505074631 58 285 0.0 0.9 0.00 0.00 0.00 84 1013.4
20260505074124 58 271 0.9 1.7 0.00 0.00 0.00 84 1013.4
20260505073617 58 251 0.9 1.7 0.00 0.00 0.00 84 1013.4
20260505072602 58 276 0.0 0.0 0.00 0.00 0.00 84 1013.4
20260505072055 58 283 0.0 0.0 0.00 0.00 0.00 85 1013.4
20260505071548 58 317 0.0 0.9 0.00 0.00 0.00 85 1013.8
20260505071040 58 317 0.0 0.9 0.00 0.00 0.00 85 1013.4
20260505070026 58 316 0.9 1.7 0.00 0.00 0.00 85 1013.4
20260505065518 58 318 0.9 1.7 0.00 0.00 0.00 86 1013.4
20260505065011 58 336 0.0 1.7 0.00 0.00 0.00 86 1013.4
20260505064504 58 346 0.0 1.7 0.00 0.00 0.00 86 1013.4